Location: Be Tobo
(6.6442°N, 10.6239°W)
Time: 16:55:04
(UTC+00:00)

CSL-04 Debris - Pass Details

Date: 18 September 2020
Orbit: 827 x 847 km, 98.9° (Epoch: 24 October)

Event Time Altitude Azimuth Distance (km) Brightness Sun altitude
Rises 19:46:22 0° 158° (SSE) 3,377 7.1 -17.2°
Reaches altitude 10° 19:48:47 10° 154° (SSE) 2,439 6.3 -17.8°
Maximum altitude 19:54:03 56° 77° (ENE) 978 4.2 -19.1°
Drops below altitude 10° 19:59:18 10° 359° (N) 2,425 6.6 -20.4°
Sets 20:01:41 0° 355° (N) 3,355 7.4 -21.0°
